Find Kosmos-2239

NORAD ID: 22590 Int'l Des: 1993-020 Owner: VMFR Country: RU operational
LEOCIRCULARPOLAR

Aktuelle Ansicht

3D-Globus wird geladen...

Über Kosmos-2239

Beschreibung wird geladen...

Nächste Überflüge

Passes for default location (London). Set your location on the main map for personalized predictions.

Höhenverlauf

Loading altitude history...

Zweizeiliger Elementsatz

1 22590U 93020A 26150.08396771 .00000062 00000-0 48182-4 0 9992
2 22590 82.9299 154.2015 0022665 347.7489 71.9689 13.75633997664290
Epoch: 30. Mai 2026 • Age: 13 hours

Aktueller Status

Höhe 1005.0 km
Geschwindigkeit 7.34 km/s
Subsatellitenpunkt -43.03°S, 133.15°W
Startdatum 1. Apr. 1993
Alter 33.1 years
Typ other

Technische Details

Klassifizierung Payload
Masse 800.00 kg
Trockenmasse 800.00 kg
Gesamtmasse 800.00 kg
Länge 5.00 m
Durchmesser 2.10 m
Spannweite 17.00 m
Form Cyl + Ant
Hersteller POL
Bus-Typ KAUR-1 11F627
Phasenstatus In Orbit
Besitzer/Staat VMFR/RU

Most Searched